Location: Scotland Neck
(36.1296°N, 77.4202°W)
Time: 12:28:00
(UTC-04:00)

GLOBALSTAR MO58 - Pass Details

Date: 09 June 2017
Orbit: 1546 x 1557 km, 52.0° (Epoch: 24 July)

Event Time Altitude Azimuth Distance (km) Brightness Sun altitude
Rises 22:31:50 0° 307° (NW) 4,724 9.5 -20.2°
Reaches altitude 10° 22:35:11 10° 315° (NW) 3,738 8.7 -20.6°
Maximum altitude 22:43:56 41° 23° (NNE) 2,132 6.4 -21.6°
Drops below altitude 10° 22:52:37 10° 91° (E) 3,724 7.2 -22.6°
Enters shadow 22:52:44 10° 92° (E) 3,757 7.2 -22.6°
